Showing default

OPTUS D2, 32252

Orbit data source: Space-Track

OPTUS D2, 32252 is a payload satellite owned by SingTel Optus (AU) in GEO that was launched on Fri, 05 Oct 2007 UTC via an ARIANE 5GS launch vehicle from the French Guiana (FRGUI). Payload-class satellites include a variety of spacecraft equipped with specific instruments for various scientific and technological missions. These include communications satellites like Starlink; space stations such as the ISS; scientific satellites like the Hubble; Earth observation satellites from companies like Planet Labs, Umbra, and HawkEye 360; GPS; miniature CubeSats for education and research; and military/defense satellites.

Not visible in the next 10 days
Identifier
32252, 2007-044A
Orbit
GEO
Country
Flag of AUAU / AUS
Related business
Manufacturer
OSC
Mission
Operational Commercial Communications
Bus & Motor
OSC STAR 2.4, BT-4
Mass
2,350 kg wet, 1,079 kg dry
Launch date (UTC)
2007-10-05 (18 years ago)
Launch vehicle
ARIANE 5GS
Launch site
French Guiana (FRGUI)
Object type
Payload
Rocket body
Debris
Shape & HBR
Box + 2 Pan, 11.2 m
Radar Cross Section
24.712 m², Large (>1 m²)

Expand to show TLE details & history
Last TLE update: 8 hours ago

TLE from 8 hours ago
0 OPTUS D2
1 32252U 07044A   25260.87317747 -.00000013  00000-0  00000-0 0  9993
2 32252   1.3658  85.4262 0003005  99.4449 150.9551  0.99344093 65832
Epoch: 2025-09-17T20:57Z
TLE epoch observation values (Epoch: 2025-09-17T20:57:22.533Z)
Latitude
-1.28582°
Longitude
24.45068°
Altitude
36,059.563 km
Speed
3.064 km/s
True Right ascension
22h 23m 20s
True Declination
-1° 17' 04"
Sunlit
Object was in daylight at epoch
Visualization orbit readout
Latitude
Unknown
Longitude
Unknown
Altitude
Unknown
Speed
Unknown
Apparent Right ascension
Unknown
Apparent Declination
Unknown
Sunlit
N/A
Visualization observer readout
Local Sidereal Time
21:22:05
Azimuth
Unknown
Elevation
Unknown
Doppler factor
Unknown
Orbital elements
Apogee altitude
36,062.495 km
Perigee altitude
36,036.996 km
Semi-major axis
42,427.883 km
Eccentricity
0.0003
Inclination
1.3658°
RAAN
85.4262°
Arg. of periapsis
99.4449°
True anomaly
150.97181°
Mean anomaly
150.9551°
Eccentric anomaly
150.96346°
Mean motion
0.24835 °/min
Orbital period
1,449.56 mins
BSTAR
0
Loading maneuver chart data...
Computing Atmospheric mass density...
Loading historical data...
Loading historical data...
Loading historical data...
Loading historical data...
Loading historical data...
Loading historical data...
Loading historical data...
Other satellites on launch #44 in the year 2007 (2007-10-05 UTC)

Documentation

Showing up to 5 results
|